Location: Cazarilh
(42.9578°N, 0.5819°E)
Time: 14:15:19
(UTC+00:00)

Daily predictions for brighter satellites

Satellite Brightness Start Highest point End
(mag) Time Altitude Azimuth Time Altitude Azimuth Time Altitude Azimuth
Okean-O 4.5 19:34:22 10° E 19:36:54 15° ENE 19:39:25 10° NNE
Cosmos 676 Rocket 4.4 19:34:46 10° N 19:39:49 48° ENE 19:44:48 10° SE
Cosmos 1975 Rocket 3.7 19:37:13 10° NNW 19:41:30 60° W 19:45:44 10° S
Cosmos 1605 Rocket 4.2 19:37:20 10° S 19:43:29 80° W 19:49:47 10° N
Okean 1 Rocket 3.8 19:47:53 10° SSE 19:51:48 33° E 19:55:45 10° NNE
Cosmos 1980 Rocket 3.7 19:47:39 10° N 19:52:06 23° NE 19:56:33 10° ESE
ARIANE 6 FM1 Upper Stage 3.4 19:49:44 10° NW 19:53:33 46° WSW 19:57:21 10° SSE
SL-08 R/B 4.0 19:49:16 10° NNE 19:53:39 33° E 19:57:57 10° SSE
SL-24 R/B 4.3 19:51:02 10° NNE 19:55:35 83° WNW 19:59:53 10° SSW
CZ-4 R/B 1.1 19:54:29 10° SSE 19:58:07 87° WSW 20:01:45 10° NNW
Meteor 2-3 Rocket 4.1 19:53:06 10° N 19:58:30 47° ENE 20:03:55 10° SSE
CZ-4B R/B 4.1 19:57:11 10° S 20:01:09 72° WSW 20:05:11 10° NNW
ASTEX 1 3.4 19:59:17 10° S 20:04:14 87° ENE 20:09:13 10° N
SPOT 5 3.6 20:00:15 10° S 20:04:23 47° W 20:08:35 10° NNW
CZ-4B DEB 4.2 20:00:10 10° SSE 20:05:40 86° ENE 20:11:14 10° NNW
Cosmos 2056 Rocket 4.0 20:02:03 10° SSW 20:07:25 68° WNW 20:12:48 10° NNE
CZ-4B R/B 3.4 20:02:27 10° SSE 20:08:03 66° ENE 20:13:39 10° N
Cosmos 1833 Rocket 2.8 20:02:48 10° SSW 20:08:25 84° WNW 20:14:04 10° NNE
CSL-04 Rocket 4.3 20:03:20 10° S 20:08:45 57° W 20:14:09 10° NNW
Cosmos 1110 Rocket 4.2 20:03:48 10° S 20:08:53 51° ESE 20:14:01 10° NNE
Cosmos 1802 Rocket 4.5 20:03:45 10° SSE 20:09:26 39° E 20:15:05 10° NNE
Cosmos 1624 Rocket 4.4 20:05:16 10° SSW 20:10:24 66° WNW 20:15:34 10° NNE
Terra 1.8 20:07:35 10° SSE 20:12:15 74° ENE 20:16:57 10° N
CBERS 1 LM4 rocket 4.4 20:07:56 10° SSE 20:12:47 77° ENE 20:17:50 10° N
Sich 1 Rocket 3.7 20:10:22 10° S 20:14:34 51° E 20:18:48 10° NNE
Gbstr 26 Del rocket 4.5 20:09:44 10° NW 20:14:35 36° NNE 20:18:39 10° E
SJ 16-02 3.5 20:18:21 10° NW 20:21:42 23° W 20:25:03 10° SSW
MetOp-B 4.1 20:17:27 10° SSE 20:22:48 90° ENE 20:28:11 10° NNW
PAYLOAD B 4.4 20:18:58 10° S 20:24:27 76° WSW 20:30:00 10° NNW
USA 229 DEB 4.1 20:19:41 10° NW 20:27:21 89° NE 20:34:05 17° SE
USA 229 4.1 20:19:43 10° NW 20:27:24 88° NE 20:34:07 17° SE
Cosmos 1743 3.4 20:25:32 10° NNE 20:28:02 24° ENE 20:28:34 22° E
Cosmos 44 Rocket 3.4 20:24:09 10° SSW 20:29:04 58° ESE 20:34:08 10° NE
Cosmos 1459 Rocket 3.9 20:24:05 10° S 20:30:20 78° E 20:36:32 10° N
ISS -3.6 20:27:11 10° SW 20:30:24 49° SE 20:33:39 10° ENE
SKYMED 3 4.4 20:28:09 10° N 20:32:05 79° WNW 20:36:02 10° SSW
Cosmos 2100 Rocket 4.0 20:27:41 10° S 20:33:53 90° WSW 20:40:13 10° N
Ariane Rocket 4.3 20:32:21 18° ESE 20:34:46 25° ENE 20:38:51 10° N
ADEOS 3.7 20:32:33 12° S 20:37:21 77° WSW 20:42:36 10° NNW
ATLAS 2AS CENTAUR R/B 4.0 20:31:16 10° WSW 20:37:51 44° NW 20:44:22 10° NNE
Spot 2 Rocket 3.4 20:36:58 20° SSE 20:40:29 73° ENE 20:45:30 10° N
BREEZE-M DEB (TANK) 3.3 20:39:12 10° WNW 20:42:13 77° NNE 20:47:10 20° ESE
SL-4 R/B 1.8 20:39:13 10° WNW 20:43:04 79° SW 20:44:44 33° SE
MOS 1-B 4.3 20:39:56 20° SSE 20:44:04 73° ENE 20:49:53 10° N
Cosmos 2082 Rocket 2.7 20:40:45 17° SSE 20:44:33 38° ESE 20:49:48 10° NE
Okean 2 Rocket 3.7 20:40:26 10° SSW 20:44:49 57° W 20:49:15 10° N
Cosmos 1607 3.9 20:49:28 10° SSW 20:55:26 57° ESE 21:01:32 10° NE
Cosmos 2233 Rocket 4.1 20:51:19 21° SSE 20:55:29 57° E 21:01:31 10° NNE
Cosmos 2228 3.1 20:55:36 36° SE 20:56:53 51° E 21:00:53 10° NNE
SL-08 R/B 4.5 20:52:56 17° S 20:57:51 69° E 21:04:10 10° NNE
USA 186 1.2 20:58:27 70° SW 20:58:35 73° WSW 21:01:16 10° NNW
Cosmos 292 Rocket 4.2 20:54:05 10° NNW 20:58:46 58° WSW 21:01:33 23° S
Okean O Rocket 1.6 20:57:28 27° S 20:59:47 75° WSW 21:04:06 10° NNW
DELTA 2 R/B (1) 4.0 20:56:33 10° SW 21:01:40 38° SSE 21:03:11 32° SE
Tsikada Rocket 4.0 20:59:47 10° N 21:05:54 62° E 21:08:51 31° SSE
CZ-4C R/B 2.2 21:02:30 10° SW 21:06:29 58° NW 21:11:34 10° NNE
Cosmos 1725 Rocket 4.0 21:00:14 10° S 21:06:32 82° W 21:12:49 10° N
Cosmos 1452 Rocket 3.6 21:01:59 10° SSW 21:07:12 76° WNW 21:12:27 10° NNE
COSMOS 2406 4.1 21:07:29 28° ESE 21:07:45 28° ESE 21:12:33 10° NE
Cosmos 1697 Rocket 3.5 21:02:56 10° NW 21:08:17 46° WSW 21:11:52 20° S
Cosmos 1741 Rocket 4.1 21:05:11 10° NNW 21:10:30 77° WSW 21:13:00 32° S
SL-16 R/B 3.9 21:08:06 10° N 21:12:26 22° NE 21:14:58 17° E
Okean-O 3.1 21:10:27 26° SSW 21:12:42 56° W 21:17:01 10° NNW
ATLAS 3B R/B 3.1 21:09:09 10° NW 21:16:47 65° WSW 21:20:47 29° SSE
CZ-4B R/B 3.3 21:19:07 45° SE 21:20:28 68° ENE 21:25:13 10° N
USA 245 4.3 21:18:49 33° SSE 21:21:35 88° WSW 21:27:31 10° NNW
Cosmos 1892 Rocket 3.9 21:17:33 10° NNW 21:21:49 58° W 21:23:28 34° SSW
Cosmos 1455 Rocket 3.9 21:19:52 16° SSW 21:23:13 49° WNW 21:27:31 10° N
Cosmos 1302 Rocket 3.9 21:21:11 19° SSW 21:24:53 86° WNW 21:30:06 10° NNE
Cosmos 2333 Rocket 3.8 21:20:50 10° N 21:25:25 24° NE 21:27:39 19° E
Cosmos 2016 Rocket 4.3 21:19:35 11° SSW 21:25:40 64° W 21:31:51 10° N
CZ-4B R/B 2.6 21:33:11 65° W 21:33:11 65° W 21:36:27 10° NNW
Cosmos 2061 Rocket 3.9 21:29:50 27° S 21:33:24 88° W 21:39:42 10° N
Cosmos 1782 3.7 21:32:58 30° WSW 21:34:05 39° WNW 21:37:26 10° N
Cosmos 1544 Rocket 3.6 21:35:33 58° E 21:35:34 58° E 21:39:51 10° NNE
SPOT 3 Rocket 3.6 21:34:29 41° S 21:36:16 72° WSW 21:41:25 10° NNW
Cosmos 1980 Rocket 2.4 21:30:55 10° NNW 21:36:32 62° WSW 21:38:33 39° S
NOSS 3-3 (A) 3.4 21:34:27 29° SSW 21:37:06 75° ESE 21:43:01 10° NE
BREEZE-M DEB (TANK) 4.0 21:33:17 10° SW 21:36:17 29° SW 21:36:17 29° SW
Cosmos 1933 4.1 21:44:19 37° NE 21:44:19 37° NE 21:46:58 10° NNE
Fengyun 1C 4.5 21:42:41 53° SSE 21:43:58 88° ENE 21:49:15 10° NNW
Cosmos 2084 Rocket 3.7 21:46:06 10° NNW 21:50:15 56° NE 21:50:19 56° NE
Terra 4.5 21:48:37 10° WSW 21:50:17 12° W 21:51:57 10° WNW
Helios 1B rocket 4.4 21:51:51 15° NE 21:51:51 15° NE 21:53:16 10° NNE
IRS-1C Rocket 4.3 21:51:54 47° SSW 21:53:18 65° WSW 21:58:34 10° NNW
IRS-P2 Rocket 4.5 21:52:32 58° S 21:53:35 84° WSW 21:58:52 10° NNW
Cosmos 1758 Rocket 3.4 21:49:15 10° N 21:53:40 86° E 21:53:42 85° ESE
CZ-2C R/B 4.2 21:55:17 26° NNW 21:55:17 26° NNW 21:56:42 10° NNW
Cosmos 1464 Rocket 4.3 21:53:23 44° ESE 21:54:07 46° E 21:59:57 10° NNE
Milstar 3 4.3 21:48:20 10° WSW 21:54:31 27° S 21:54:31 27° S
Cosmos 1513 Rocket 4.4 21:56:21 51° SSE 21:57:56 73° E 22:04:07 10° NNE
Gbstr 26 Del rocket 3.1 21:56:37 10° WNW 22:00:52 65° W 22:00:52 65° W
Cosmos 2360 Rocket 3.6 21:57:56 10° N 22:02:41 27° NE 22:04:14 24° ENE
NOSS 3-3 (C) 3.6 22:02:52 37° SW 22:05:01 83° NW 22:11:06 10° NE
ISS -1.8 22:04:19 10° W 22:07:19 30° NNW 22:08:14 26° N
Cosmos 1072 Rocket 4.4 22:08:18 58° SE 22:09:18 67° E 22:15:32 10° NNE
Geosat 4.1 22:06:03 10° NNE 22:11:03 73° WNW 22:12:24 48° SW
Cosmos 2237 4.2 22:06:41 10° NNW 22:12:25 72° WSW 22:13:13 62° SSW
Ariane Rocket 3.8 22:12:25 37° SW 22:13:24 41° W 22:18:11 10° NNW
USA 305 3.9 22:10:29 10° NW 22:13:09 36° NNW 22:13:09 36° NNW
Cosmos 1602 Rocket 3.8 22:15:00 10° N 22:18:42 65° N 22:18:42 65° N
Cosmos 2219 Rocket 3.8 22:15:40 10° N 22:20:10 23° NE 22:21:48 21° ENE
Cosmos 1437 Rocket 4.0 22:21:47 35° NNW 22:21:47 35° NNW 22:24:09 10° N
Cosmos 2369 4.2 22:22:15 10° NW 22:27:42 46° WSW 22:28:18 45° SW
Cosmos 2034 Rocket 4.1 22:27:37 56° ESE 22:28:04 57° E 22:34:17 10° NNE
Cosmos 2082 Rocket 3.7 22:23:29 10° WSW 22:28:38 34° NW 22:33:49 10° N
Cosmos 2151 3.9 22:25:35 10° NNW 22:28:56 42° WNW 22:28:56 42° WNW
Cosmos 2322 Rocket 2.8 22:25:01 10° NNW 22:30:25 44° ENE 22:31:03 43° ENE
Cosmos 1428 Rocket 4.4 22:24:28 10° N 22:30:43 68° E 22:31:20 64° ESE
Meteor 1-5 Rocket 4.1 22:34:05 10° N 22:39:47 89° WSW 22:40:03 83° S
USA 234 3.1 22:34:33 10° NE 22:41:08 78° SE 22:42:48 53° SSW
Cosmos 1763 Rocket 4.3 22:45:39 40° ENE 22:45:39 40° ENE 22:49:29 10° NNE
Okean 1-7 Rocket 4.2 22:43:36 10° NNW 22:47:08 54° NNW 22:47:08 54° NNW
Cosmos 1503 Rocket 4.4 22:44:13 10° NNW 22:49:02 52° NE 22:49:02 52° NE
Cosmos 1777 Rocket 4.1 22:44:24 10° NNW 22:49:16 67° NE 22:49:16 67° NE
Cosmos 2278 3.6 22:43:54 10° NNW 22:49:38 86° ENE 22:49:38 86° ENE
Helios 1A 4.1 22:45:56 10° N 22:48:45 39° NNW 22:48:45 39° NNW
COSMOS 2406 4.1 22:49:26 30° WSW 22:51:46 45° WNW 22:57:17 10° NNE
Cosmos 1606 Rocket 4.4 22:52:45 49° NNW 22:52:45 49° NNW 22:56:07 10° N
SL-16 R/B 2.3 22:51:23 10° NNW 22:56:47 65° W 22:56:47 65° W
Cosmos 1634 Rocket 4.2 22:57:50 53° E 22:57:50 53° E 23:03:42 10° NNE
Cosmos 1486 Rocket 4.1 22:56:08 10° NNW 23:00:50 71° NW 23:00:50 71° NW
Cosmos 2098 Rocket 4.3 23:02:10 40° W 23:02:21 40° WNW 23:06:51 10° N
Nadezhda 4 Rocket 4.1 22:56:22 10° NNW 23:02:23 61° W 23:02:51 59° WSW
SeaSat 1 4.4 23:03:53 18° ENE 23:05:15 20° NE 23:08:44 10° N
Meteor 2-2 Rocket 4.4 23:10:21 65° ENE 23:10:21 65° ENE 23:15:31 10° NNE
Cosmos 2333 Rocket 2.5 23:04:29 10° NNW 23:09:39 57° W 23:09:39 57° W
CZ-2C R/B 4.0 23:16:22 28° ENE 23:16:42 28° ENE 23:21:08 10° N
BREEZE-M DEB (TANK) 4.1 23:08:26 10° W 23:16:57 60° N 23:21:50 10° E
Cosmos 1833 4.3 23:17:41 70° NE 23:17:41 70° NE 23:22:43 10° NNE
Cosmos 1627 Rocket 4.4 23:11:12 10° N 23:17:37 86° W 23:17:52 83° SSW
Spot 4 4.4 23:23:21 55° NNW 23:23:21 55° NNW 23:27:06 10° NNW
Cosmos 2026 Rocket 4.0 23:20:44 10° NNW 23:27:04 70° W 23:27:17 70° WSW
Aureole 1 Rocket 4.2 23:26:22 10° NNW 23:31:47 56° ENE 23:32:03 56° ENE
Cosmos 2297 Rocket 4.3 23:33:58 14° E 23:33:58 14° E 23:35:49 10° ENE
DNEPR-1 R/B 4.5 23:28:20 10° NW 23:33:34 68° W 23:33:34 68° W
Cosmos 2333 4.4 23:34:30 10° NNW 23:39:28 62° WNW 23:39:28 62° WNW
ALOS 2 3.9 23:43:55 37° NW 23:43:55 37° NW 23:46:43 10° NNW
ARIANE 5 R/B 4.0 23:44:33 34° NW 23:44:33 34° NW 23:47:18 10° NNW
Cosmos 2360 Rocket 2.9 23:41:27 10° NW 23:45:58 45° WNW 23:45:58 45° WNW
Cosmos 2058 Rocket 4.5 23:48:52 35° NNW 23:48:52 35° NNW 23:51:45 10° N
Cosmos 468 Rocket 4.4 23:51:08 62° NNE 23:51:08 62° NNE 23:55:31 10° NNE
GP-B 4.5 23:46:30 10° NNE 23:49:14 34° NE 23:49:14 34° NE
